Wind_Speed
22 23 24 23 20 18 16 17 21 25 31 32 32 28 24 28 29 32 44 46 33 31 44 55 65 70 70 72 72 69 66 65 62 56 59 61 66 69 62 61 61 60 61 56 54 55 53 54 54 52 53 52 49 48 49 48 46 44 47 46 41 39 37 32 29 27 27 25 23 23 23 22 22 22 22 22 21 19 18 16 15 16 16 16 17 18
23 22 22 21 20 20 21 21 22 24 29 35 40 37 32 34 34 23 23 32 34 34 38 45 57 58 59 68 71 71 70 67 67 66 63 58 61 69 66 64 63 61 59 54 54 56 54 55 54 51 53 53 50 48 47 45 44 44 45 45 43 40 37 34 31 29 28 26 24 24 23 23 22 22 22 22 21 19 18 18 17 17 17 18 18 19
25 23 23 23 23 24 26 25 24 24 25 30 37 43 46 44 38 29 26 26 27 34 39 43 52 49 52 68 70 66 69 70 69 68 67 62 59 64 67 65 64 64 62 54 52 55 54 55 54 51 52 53 49 46 45 44 44 45 44 44 43 40 38 36 34 32 30 27 26 25 24 23 22 22 23 22 21 20 19 19 19 19 19 19 19 19
24 23 26 28 26 26 27 26 25 24 24 26 30 38 46 46 39 33 32 32 32 43 52 45 45 48 54 69 72 66 67 71 71 68 68 67 63 63 65 66 66 69 69 60 55 55 53 53 54 51 50 51 47 44 45 45 45 45 43 41 41 40 40 39 36 34 31 28 27 26 25 24 22 22 23 23 22 21 20 20 21 21 21 20 19 19
24 23 26 28 27 27 27 27 26 25 24 25 27 32 38 41 37 30 29 30 30 39 48 45 46 54 61 66 70 71 72 73 71 69 71 68 65 65 65 64 66 70 71 66 63 60 55 55 55 51 48 46 45 44 45 46 46 44 41 40 38 39 42 41 39 37 32 27 26 25 25 24 23 22 23 23 23 22 22 22 22 22 22 21 19 19
25 24 26 27 27 27 26 25 25 25 24 22 23 26 32 38 37 31 27 28 28 26 30 37 49 62 68 67 70 71 71 72 72 71 71 69 66 67 66 63 66 71 71 67 66 64 60 58 56 52 48 47 45 43 45 45 45 43 40 39 37 38 41 41 40 38 32 27 26 25 24 24 23 23 23 23 23 23 23 23 23 23 23 21 20 19
25 24 25 26 26 25 25 23 23 23 23 21 18 18 22 31 36 38 35 30 28 27 27 31 41 59 69 68 68 70 70 70 71 75 75 73 73 74 72 66 67 72 70 65 64 65 64 60 57 53 48 47 46 44 44 44 44 43 41 40 38 38 42 42 41 38 32 28 28 26 25 24 24 24 24 24 24 24 23 23 23 23 23 22 21 20
22 23 24 24 22 22 23 22 21 22 24 22 17 17 22 26 28 35 40 39 33 31 35 32 29 40 55 63 66 66 69 71 71 75 77 74 73 74 70 64 63 65 66 65 64 64 65 61 58 54 49 48 47 44 44 44 44 43 42 40 38 40 45 44 42 39 33 29 28 27 26 26 25 25 25 25 24 24 24 24 24 24 24 23 22 22
21 23 25 25 22 22 23 22 22 23 25 23 19 22 28 30 30 32 36 42 41 37 41 40 31 29 39 53 62 60 61 68 72 74 75 73 72 72 69 65 63 61 62 66 64 62 63 62 58 54 52 50 47 46 45 44 44 43 42 41 39 43 48 47 44 42 37 33 30 28 27 27 27 26 26 25 25 25 25 26 25 25 25 24 24 23
19 22 25 25 23 23 23 22 22 25 25 23 24 26 26 29 35 36 35 36 37 36 41 41 33 30 36 44 51 54 52 54 64 71 73 73 72 72 72 70 67 65 64 66 65 63 62 61 60 57 55 52 50 50 49 46 45 44 43 42 41 45 50 50 47 44 42 39 37 33 30 28 28 28 27 26 26 26 27 27 26 26 26 25 25 23
17 21 23 23 23 23 23 23 23 25 25 24 26 26 24 26 28 32 35 35 36 38 44 44 32 28 38 40 39 49 55 51 54 62 67 73 74 72 71 71 68 67 68 67 65 66 63 61 62 60 55 52 50 52 51 48 47 46 46 45 44 46 50 52 49 46 45 45 44 39 32 29 28 28 28 28 26 26 27 27 27 27 26 25 25 24
18 21 23 24 24 23 23 24 24 25 25 24 24 21 22 24 24 25 28 32 39 44 47 46 35 30 36 33 25 36 53 55 53 52 51 57 68 73 71 69 69 67 68 67 64 64 63 62 63 60 54 53 53 53 52 52 49 47 49 48 45 45 49 53 51 49 49 47 45 41 33 29 28 29 29 28 27 27 27 27 28 27 26 25 25 26
19 22 25 26 26 26 25 25 25 24 22 22 22 21 21 23 24 26 26 29 37 46 50 42 31 31 36 33 25 25 34 41 46 51 51 49 56 70 73 69 68 68 68 68 66 64 63 64 64 59 56 57 57 53 52 53 51 49 50 50 46 44 47 53 56 54 54 50 45 39 33 28 28 29 30 29 27 27 27 28 28 28 26 25 26 27
18 21 24 26 28 29 29 29 26 22 21 21 21 22 22 22 23 26 27 28 29 33 41 36 27 29 31 34 37 35 30 27 29 37 48 52 53 60 68 68 68 68 68 68 68 66 63 65 65 61 59 60 57 52 51 53 52 50 51 51 49 47 45 50 55 55 55 53 45 38 33 29 29 31 31 30 27 27 28 28 29 29 27 26 26 26
19 22 24 25 28 30 31 32 26 20 21 23 22 24 24 22 23 25 24 26 25 24 27 28 31 35 33 30 31 35 36 34 32 25 25 40 54 60 63 67 69 68 67 68 70 68 63 64 66 63 60 60 57 53 52 51 51 51 51 51 51 49 46 47 50 51 54 54 46 38 34 31 31 33 32 30 28 27 28 29 29 30 29 27 26 26
20 22 25 26 27 29 30 28 25 23 23 22 22 25 25 22 23 25 25 24 23 23 24 26 30 35 38 37 28 24 25 32 42 41 34 42 56 65 68 69 69 69 68 66 69 70 64 63 68 66 62 61 58 56 54 50 50 51 51 52 51 49 48 49 48 47 52 56 47 39 36 32 33 35 32 29 28 28 28 29 30 31 30 29 27 27
21 21 26 27 26 29 28 24 24 26 24 21 22 23 24 23 23 25 28 27 25 26 27 27 26 22 26 35 37 32 25 28 42 48 52 58 56 56 64 66 66 68 71 69 69 72 68 65 69 68 64 62 59 57 55 51 50 51 51 51 50 50 52 52 47 44 50 54 48 41 38 35 35 36 32 28 27 27 29 30 31 32 32 31 29 28
22 21 22 25 25 27 27 23 23 25 22 21 21 20 22 24 24 24 28 30 28 27 25 25 28 24 20 24 31 35 32 38 47 45 50 62 59 53 58 62 63 65 69 72 73 73 68 67 71 67 63 63 62 59 56 51 51 52 51 51 50 52 55 52 46 44 49 52 49 44 40 38 37 36 31 27 27 28 28 29 31 33 34 33 31 30
24 23 21 24 26 25 24 22 21 22 21 20 17 16 19 21 22 25 28 30 29 26 23 24 26 24 22 19 18 22 26 34 45 48 52 57 55 52 53 58 62 63 66 71 73 71 67 67 70 66 62 63 62 59 56 53 53 53 52 51 51 54 54 50 46 47 52 53 49 45 41 39 38 35 31 27 26 27 28 29 31 34 35 34 33 32
25 26 25 28 29 24 20 18 19 22 22 18 13 14 16 17 20 24 24 25 28 27 23 24 25 21 20 18 15 16 18 22 27 35 46 51 50 50 49 52 57 60 63 67 68 70 70 70 70 66 63 63 61 58 56 56 56 54 53 53 53 54 53 51 49 49 53 53 47 42 39 38 38 35 31 28 26 27 28 30 32 34 36 35 34 33
25 28 29 30 30 23 15 14 18 20 20 18 15 14 13 15 18 22 23 23 26 27 23 23 26 25 19 15 17 18 19 21 18 16 25 35 39 45 48 48 51 55 59 63 65 68 71 72 69 66 64 64 62 59 58 58 57 56 54 54 54 54 53 53 51 49 53 53 46 42 39 38 38 36 33 30 28 27 29 31 33 35 36 35 33 33
26 29 30 29 27 20 12 12 17 19 18 16 17 15 11 12 15 20 22 23 24 26 23 22 25 27 21 14 14 18 20 23 22 18 22 29 31 39 48 47 47 51 56 61 64 65 69 70 69 67 66 65 63 61 59 58 58 58 56 55 56 55 54 54 53 51 54 53 48 44 40 38 37 37 35 32 29 29 30 32 33 35 37 36 34 33
27 28 28 27 26 20 13 11 14 18 20 17 16 14 11 7 11 18 20 21 24 26 23 21 22 22 20 17 20 26 25 24 25 24 26 31 30 34 40 43 46 50 53 58 62 63 66 68 69 69 67 65 64 62 60 59 59 59 58 57 57 56 54 55 55 53 54 54 50 46 42 39 39 38 37 35 31 31 32 33 33 36 38 37 34 33
25 26 28 28 27 20 14 12 13 17 19 19 17 14 10 5 5 13 18 19 22 24 22 21 21 16 14 18 24 31 32 32 36 36 35 38 40 41 43 46 50 52 52 56 60 63 65 66 68 70 70 69 66 64 62 61 60 59 59 58 57 57 56 57 57 55 55 55 51 47 44 40 39 40 39 37 34 33 33 33 34 37 39 38 35 33
24 27 30 32 29 22 14 13 15 17 18 19 19 15 8 3 3 7 12 17 21 21 21 22 23 17 15 19 22 28 34 39 42 43 43 44 45 48 50 50 50 51 51 52 55 58 60 62 65 69 70 70 68 65 63 62 61 60 60 59 58 59 58 58 58 55 55 57 53 48 45 41 41 43 41 37 35 34 34 35 36 38 39 38 36 33
25 26 29 31 30 24 18 14 14 15 17 18 18 16 10 3 3 5 8 14 17 17 19 23 23 18 16 18 19 22 29 34 38 42 45 44 43 46 49 51 51 51 51 51 50 53 56 58 62 65 68 69 68 66 65 63 62 61 61 60 59 60 59 57 57 55 53 56 54 49 46 43 44 45 42 37 35 34 35 36 37 37 38 37 37 34
23 24 26 26 25 23 20 17 15 14 15 16 15 14 11 5 2 5 7 8 7 11 16 18 18 18 19 19 18 20 23 26 31 38 43 43 42 44 46 50 53 52 50 49 49 50 52 55 58 61 64 68 69 68 67 65 63 62 62 62 61 62 59 56 56 55 53 56 56 51 48 47 46 47 43 37 35 35 37 37 38 38 37 37 38 37
22 24 26 24 23 22 18 15 14 14 14 14 12 10 10 7 5 5 5 6 7 10 11 11 14 19 21 19 20 22 21 21 26 32 36 40 44 45 45 49 52 51 49 49 48 48 48 51 55 58 61 65 68 69 67 66 65 63 63 64 63 63 61 59 58 55 53 56 57 53 50 49 48 48 45 39 36 37 38 39 39 39 38 38 39 39
26 25 26 25 23 22 19 15 13 11 10 11 11 8 7 7 7 6 6 7 8 9 7 7 10 14 16 19 23 24 22 22 25 29 31 36 42 45 44 45 48 49 50 50 48 46 46 48 51 55 58 62 67 69 68 67 66 64 64 65 64 63 61 60 61 58 54 55 58 57 53 52 51 49 47 42 38 38 39 40 41 41 40 39 39 40
29 27 28 28 24 19 19 17 14 10 7 6 6 6 5 5 7 7 7 8 7 6 6 5 7 9 13 17 21 24 25 24 25 28 30 33 39 42 39 37 40 45 48 49 47 44 43 46 48 51 55 60 65 69 69 68 67 65 64 64 64 64 62 61 63 61 56 54 58 58 55 53 53 51 48 46 41 38 39 42 44 43 43 41 40 41
29 28 30 33 30 22 18 17 17 15 9 5 4 4 5 5 5 5 6 7 6 6 7 6 6 7 9 13 15 18 23 25 27 31 32 32 35 37 34 31 33 38 42 46 47 44 41 43 47 48 50 56 63 68 69 70 69 67 66 64 63 65 66 65 64 62 59 56 56 57 54 53 53 52 51 49 44 39 39 43 46 46 46 44 42 43
29 28 29 34 34 28 22 21 24 24 19 13 10 6 8 8 8 7 6 7 7 7 8 8 6 4 5 8 10 13 19 24 28 31 32 30 31 33 33 31 31 34 39 44 47 43 39 40 45 47 48 50 57 65 69 70 69 69 68 65 63 64 66 67 65 62 61 59 56 56 56 54 52 52 52 50 45 40 40 44 48 49 48 47 44 44
28 28 28 30 33 31 27 27 30 31 27 22 16 11 10 10 11 11 10 9 9 9 8 8 7 5 5 8 8 10 16 22 26 28 29 30 32 32 33 32 31 33 39 44 44 39 36 38 43 46 47 48 54 61 66 68 69 69 68 65 63 64 65 66 65 63 61 59 57 57 58 56 52 51 52 49 45 43 43 46 50 51 50 48 46 45
27 27 27 28 29 30 30 31 33 33 31 24 17 14 13 12 11 10 10 9 9 8 8 9 10 9 8 9 10 11 15 21 25 27 27 30 33 33 36 37 34 33 39 44 41 35 32 35 39 43 45 46 51 58 63 66 68 68 68 66 65 65 64 63 64 63 61 60 59 59 59 58 55 53 52 50 48 47 46 48 51 52 50 49 47 46
26 25 25 26 28 28 30 33 33 33 33 25 15 13 14 12 9 8 7 7 8 10 10 10 13 12 10 11 14 15 15 17 22 24 24 27 32 35 38 39 35 34 38 41 40 34 30 31 34 40 44 46 49 55 61 64 65 66 67 68 67 66 64 62 62 62 61 61 61 60 60 60 58 56 54 52 51 49 49 51 53 52 50 49 48 46
26 26 27 25 26 27 30 34 34 33 33 25 14 11 12 11 9 8 7 8 7 7 8 8 10 12 11 11 13 14 14 16 19 20 20 23 28 34 37 36 35 37 40 41 40 38 35 33 34 38 45 48 48 52 58 62 63 64 65 66 67 66 64 62 61 60 60 62 62 60 60 60 59 58 56 54 53 51 51 53 53 51 50 50 48 45
24 27 28 26 25 27 29 31 32 32 31 26 18 14 13 11 10 9 8 10 11 9 7 8 8 7 8 9 10 11 12 14 16 17 18 20 25 31 35 36 37 40 41 40 41 41 39 38 39 42 47 50 50 51 55 58 61 63 64 65 66 66 65 63 61 60 60 61 61 59 59 59 59 58 57 55 54 52 53 54 53 51 50 49 46 43
22 25 28 27 26 28 28 28 30 33 34 29 21 14 12 11 10 11 11 12 13 12 10 10 10 9 7 7 7 8 10 11 13 16 19 20 22 26 31 35 37 39 39 40 44 44 41 40 42 43 46 49 51 52 52 54 57 61 63 63 64 65 66 65 63 62 60 59 59 57 56 57 57 56 56 55 53 52 53 53 52 51 49 47 45 42
20 23 25 25 25 26 27 26 27 32 36 33 22 11 9 10 11 13 14 13 12 14 13 13 13 11 10 9 7 7 8 9 10 14 17 18 20 22 26 32 35 36 36 38 40 40 39 40 43 43 44 46 49 51 51 51 53 57 60 61 62 64 65 65 64 63 60 57 56 54 54 54 53 53 53 53 53 53 53 52 52 51 49 46 44 42
18 20 22 23 22 22 24 24 25 29 36 36 25 11 8 10 10 13 18 19 16 15 14 14 14 11 10 9 8 6 6 8 10 13 15 15 16 18 21 25 29 32 35 37 39 38 37 38 41 44 44 44 45 48 49 49 49 52 55 59 61 62 63 64 64 63 60 57 54 53 52 50 49 50 51 51 51 52 53 53 52 50 48 46 44 42
16 17 19 20 20 20 22 23 24 27 33 37 29 15 9 10 10 12 19 22 18 15 16 17 15 11 10 9 6 5 6 7 9 11 12 13 15 16 18 22 25 29 33 36 38 39 38 37 38 41 43 44 44 45 47 47 47 47 50 55 60 61 61 61 62 62 60 57 54 52 51 48 48 49 50 50 50 52 53 53 51 49 48 45 43 43
15 15 17 19 20 21 21 20 22 24 30 34 31 21 13 11 11 12 15 16 14 13 16 19 16 12 11 9 6 5 6 6 7 9 10 11 14 16 18 22 25 28 30 32 34 36 38 39 39 39 41 42 43 43 44 45 45 45 47 51 56 59 59 59 60 61 59 56 54 52 49 48 48 49 49 49 50 51 51 51 50 48 47 44 43 42
16 17 18 19 20 20 20 21 23 25 28 30 30 26 20 16 14 14 14 14 13 14 16 16 15 14 13 10 9 9 7 6 7 8 7 8 11 14 17 20 22 24 27 29 32 34 36 37 38 39 41 42 42 44 45 45 45 44 45 48 51 55 58 58 59 60 60 57 54 52 49 48 49 49 49 49 50 51 51 50 49 47 45 43 43 43
17 18 17 18 19 19 20 22 24 24 25 27 28 28 27 24 17 11 12 14 15 16 15 15 16 17 15 13 12 9 5 7 8 7 6 6 7 10 14 16 18 21 26 30 34 34 35 37 38 40 42 44 44 45 46 46 47 47 46 47 50 54 58 59 59 59 59 56 53 51 50 50 50 50 49 48 50 50 50 49 48 46 45 44 44 43
17 18 17 17 18 19 19 19 20 20 20 23 25 24 26 27 21 12 10 12 13 13 14 15 17 17 16 15 13 7 1 6 5 4 5 6 5 5 9 13 16 20 24 29 32 30 30 36 40 42 43 44 44 44 45 46 49 50 50 50 53 55 58 59 60 59 58 55 53 51 50 50 50 49 48 49 50 50 49 48 47 47 46 45 44 44
18 18 17 17 17 17 16 17 18 18 17 18 20 21 22 25 25 19 13 11 10 10 11 12 15 17 16 14 11 6 1 3 2 2 4 4 4 5 5 7 12 17 20 25 24 18 19 28 38 42 42 41 40 40 42 45 47 49 52 54 55 58 60 60 60 59 56 54 52 51 50 49 49 49 48 49 50 49 48 48 47 46 45 44 44 44
19 18 17 17 17 16 16 17 18 19 17 16 18 20 19 21 24 23 18 13 10 8 7 9 15 16 14 13 8 4 2 1 1 1 4 5 5 5 5 6 10 12 14 15 10 7 21 28 34 38 39 39 35 33 36 44 46 46 47 50 53 57 61 62 61 59 57 54 52 51 50 49 49 49 49 49 49 49 48 47 46 44 43 43 44 44
19 19 18 17 17 16 16 17 19 21 21 19 20 21 19 18 20 21 20 17 12 8 6 8 13 18 16 8 6 3 2 2 2 0 3 5 6 6 7 7 9 10 9 6 1 10 24 27 26 29 33 37 37 32 30 39 44 43 44 46 47 50 54 58 61 61 58 56 55 53 51 50 49 49 49 48 48 48 47 45 44 43 43 44 45 45
19 19 18 18 17 16 14 14 15 18 18 17 18 20 18 16 16 17 18 18 15 13 11 11 12 17 24 17 3 2 4 5 4 2 5 7 6 6 8 9 11 11 9 5 5 13 20 21 21 24 26 32 39 38 32 33 39 42 43 43 44 46 48 49 53 54 54 54 54 52 50 49 48 48 48 47 47 46 45 45 44 45 46 46 46 46
19 19 20 20 18 17 15 14 14 15 15 15 16 16 15 13 13 15 16 17 17 16 15 13 11 13 21 21 10 4 6 13 17 11 2 6 3 3 7 9 11 10 8 6 7 11 14 16 19 22 22 25 32 35 33 33 36 38 37 35 35 39 41 39 40 41 42 45 47 46 44 44 45 46 46 46 46 46 46 46 46 47 48 48 48 48
17 18 20 21 21 19 18 17 17 17 15 15 16 16 15 13 13 14 16 17 18 18 18 17 15 14 15 17 14 7 5 8 11 8 2 3 3 5 7 7 8 8 8 9 9 10 12 15 19 21 22 23 25 27 29 31 33 34 34 32 31 33 35 35 35 33 33 35 37 38 39 41 43 43 44 44 45 46 47 47 48 50 50 50 49 49
Wind_Direction
312 309 311 315 315 312 304 289 275 257 245 241 234 232 240 232 226 239 238 228 224 233 237 237 236 235 236 237 235 233 233 232 229 229 232 231 229 229 226 226 229 232 235 231 230 232 230 229 232 232 230 227 230 237 241 246 251 252 256 259 259 255 252 250 240 234 236 236 234 230 228 229 232 239 244 247 251 252 256 261 266 272 277 286 292 295
308 305 303 304 302 300 297 296 290 273 258 248 238 232 233 224 215 223 234 229 227 234 238 235 233 234 233 233 235 233 230 231 231 228 229 230 231 230 226 226 227 230 233 230 228 230 232 232 233 233 229 224 225 233 238 243 247 249 252 256 258 254 248 246 240 232 231 231 228 226 226 229 232 238 244 247 250 251 255 259 263 269 276 285 291 294
305 305 300 298 299 297 296 296 297 291 276 259 247 240 237 232 227 230 232 232 230 229 232 234 233 233 231 228 231 234 230 228 230 229 227 228 231 232 228 226 227 230 231 230 227 227 232 234 232 232 230 224 223 229 235 238 242 245 248 252 255 252 243 242 241 232 228 228 225 223 225 228 233 238 243 247 250 252 254 258 262 267 274 282 288 292
303 303 298 301 304 299 295 295 296 297 291 272 254 246 242 239 239 241 239 240 240 233 230 234 236 232 230 228 227 231 231 229 228 229 227 225 228 231 228 225 227 230 229 230 230 227 229 233 231 229 228 223 221 226 232 235 238 242 245 248 252 250 241 241 242 232 225 225 222 221 225 228 233 237 242 247 250 253 255 258 261 266 273 280 285 290
296 294 290 298 304 300 296 297 297 296 294 283 264 251 244 240 241 246 244 238 244 245 237 237 242 238 233 230 228 230 232 231 228 228 229 226 226 230 229 224 226 230 229 229 233 231 229 232 231 228 226 222 221 225 230 234 237 240 243 245 249 248 241 238 238 230 221 222 222 223 227 231 235 238 242 247 251 254 257 259 261 266 271 277 284 288
293 293 291 298 305 304 299 296 299 297 291 284 270 259 249 241 237 239 241 234 234 244 240 238 242 238 234 231 229 229 231 232 230 228 228 226 224 228 229 224 224 229 230 229 233 234 231 232 232 229 227 224 221 223 228 233 235 237 240 243 246 246 239 235 234 229 221 218 222 225 230 235 238 239 243 247 251 255 257 260 262 266 270 276 282 287
294 296 297 301 305 305 301 297 297 295 292 289 272 262 259 249 240 237 236 233 233 237 237 238 241 238 235 232 230 229 229 230 230 228 227 224 222 223 225 222 222 227 228 227 231 231 230 231 230 228 228 225 219 219 225 230 233 235 237 241 245 242 234 231 233 232 228 221 221 225 230 236 239 240 243 245 249 253 256 260 263 265 269 275 282 286
298 300 300 303 305 302 301 299 297 291 290 294 278 257 255 248 239 237 235 233 235 238 236 235 240 241 238 234 232 231 230 230 230 230 229 227 225 224 225 223 223 229 229 228 230 231 230 232 231 228 227 225 221 218 221 228 231 233 236 238 242 237 229 228 230 232 233 226 221 225 229 235 240 241 243 244 246 251 255 259 262 265 269 274 281 285
299 300 302 304 304 301 300 296 293 289 288 290 280 266 259 249 237 233 233 235 236 241 241 235 235 241 240 234 232 233 233 233 232 232 230 229 227 226 225 225 226 229 231 229 230 230 230 230 231 228 225 224 225 222 220 225 229 230 233 236 236 233 227 225 227 229 232 227 220 222 226 233 239 240 241 242 245 250 254 258 262 264 268 273 278 284
296 299 302 302 301 300 302 301 295 290 287 283 275 274 271 261 250 242 239 237 235 239 242 237 232 238 240 234 230 229 230 232 234 233 231 229 228 226 224 224 226 227 229 229 228 229 228 228 231 228 224 225 226 224 221 221 225 227 229 232 232 230 226 224 225 229 234 235 231 224 221 228 235 238 240 242 245 251 255 258 262 265 268 271 275 281
297 301 301 301 302 302 302 302 302 295 287 280 274 275 273 267 260 252 249 245 237 235 238 236 231 234 238 237 234 228 225 227 231 232 231 231 229 227 225 224 224 226 229 229 228 229 227 227 230 227 225 225 222 222 222 220 221 224 227 229 230 229 225 223 226 231 236 240 237 227 218 222 230 235 239 241 246 251 255 259 263 265 268 271 273 277
304 309 308 309 309 310 305 299 301 299 290 282 277 272 266 265 262 252 249 247 242 237 237 237 234 233 234 233 233 231 227 228 230 231 230 231 231 228 225 224 224 225 228 229 228 229 228 226 228 227 224 223 223 225 226 221 219 222 226 228 229 229 227 223 225 230 232 234 234 226 217 218 226 233 238 241 246 250 255 260 263 266 268 271 272 275
309 309 308 312 312 313 314 308 303 300 291 282 276 268 260 261 258 249 243 242 245 244 239 237 235 235 235 232 227 226 227 228 232 236 233 229 230 228 225 223 223 224 226 228 228 228 228 227 226 225 223 222 225 227 224 219 218 220 225 227 228 229 229 226 226 227 228 229 229 221 212 215 224 231 237 242 247 252 257 261 264 267 269 270 272 274
311 308 305 310 313 314 315 313 310 304 295 284 275 267 259 254 250 249 247 242 243 246 243 238 233 235 239 237 232 229 229 223 223 237 239 234 232 231 228 225 225 225 224 227 228 226 227 228 225 223 224 224 224 223 219 217 217 220 225 227 228 228 229 229 229 229 229 229 225 214 207 212 222 229 236 242 248 253 257 261 265 268 270 270 272 275
317 314 309 311 312 313 313 312 310 305 297 290 279 268 259 252 246 245 247 245 242 246 246 237 233 236 237 238 236 235 237 231 218 223 236 231 227 227 227 225 224 225 224 226 228 225 224 228 226 221 222 225 223 218 217 217 216 220 224 227 229 230 231 231 233 233 230 228 222 212 208 212 220 228 233 239 248 254 258 262 266 269 271 272 273 276
323 317 312 313 314 313 312 311 308 304 301 295 282 268 256 250 249 247 244 242 240 241 236 226 230 240 240 238 235 228 234 235 227 225 230 228 223 224 225 223 221 222 222 224 229 226 221 225 227 221 218 224 224 216 215 218 218 221 224 226 229 230 232 234 234 234 233 229 222 215 213 214 221 227 231 238 248 254 258 263 267 270 273 274 276 277
325 323 315 314 316 316 315 314 309 307 305 299 287 273 259 247 245 250 249 243 238 238 235 226 223 232 238 237 236 230 229 235 231 229 232 233 229 226 228 226 223 223 222 221 225 224 218 221 226 221 217 222 222 215 216 221 220 221 224 226 228 230 232 235 235 236 234 227 219 216 214 213 219 225 229 238 248 254 258 262 266 271 274 276 278 279
326 334 326 319 320 319 318 318 313 310 309 307 297 279 264 249 237 242 247 243 240 241 241 233 225 223 223 223 229 232 233 237 237 232 232 234 233 229 228 228 225 224 224 224 225 224 219 221 226 223 219 220 219 216 219 222 220 221 223 225 227 230 233 235 235 235 230 219 213 214 212 211 216 221 227 238 247 253 258 263 267 271 274 277 280 281
327 337 339 331 329 325 318 319 319 317 317 316 305 285 274 259 242 241 245 244 243 244 243 237 233 234 230 219 216 227 236 242 243 239 234 234 235 232 229 229 226 224 225 225 226 225 222 222 226 225 223 224 223 221 221 220 220 221 222 223 226 229 233 235 234 230 225 217 212 211 210 212 215 218 226 237 245 252 259 264 268 271 273 277 281 283
325 331 337 333 329 328 322 323 327 325 323 323 316 298 285 270 249 240 240 241 241 242 244 241 238 238 237 235 233 228 232 239 243 244 240 236 236 234 230 230 229 226 225 225 225 224 222 222 223 223 223 225 226 225 221 219 219 220 220 222 225 229 232 234 234 229 223 218 213 209 209 213 216 219 226 236 242 248 256 263 268 271 273 277 280 284
325 327 332 331 329 331 329 331 337 335 326 322 326 316 289 273 259 242 235 237 236 236 242 245 242 240 235 239 246 237 234 237 235 238 235 231 234 233 228 228 229 227 225 225 224 224 223 222 222 222 222 223 225 225 222 219 219 219 220 221 224 227 230 233 235 229 222 218 212 208 210 214 217 222 227 235 242 247 253 261 266 270 273 276 279 283
329 330 333 336 337 335 331 332 339 347 341 323 320 321 298 271 260 247 239 241 239 233 237 246 247 243 235 229 236 236 238 241 238 236 230 227 230 229 226 226 227 227 226 224 223 223 224 223 221 221 221 222 222 223 221 219 219 219 219 221 224 226 228 231 234 227 219 216 212 209 212 214 218 224 228 234 242 247 253 259 262 267 271 274 278 282
330 331 334 343 346 338 333 337 334 342 348 338 328 329 324 291 251 242 241 241 237 231 234 248 252 244 237 232 221 217 219 220 222 227 231 231 229 227 225 225 226 226 225 224 223 222 223 222 221 220 221 221 222 222 221 219 218 219 219 220 223 226 226 228 232 227 217 215 214 212 213 214 218 224 228 234 241 246 252 257 259 263 268 272 277 280
331 333 334 342 349 344 337 340 336 337 342 344 343 339 334 331 251 238 240 236 232 229 231 245 251 239 233 238 228 220 218 218 218 220 224 228 227 224 224 225 225 225 224 223 223 222 221 221 220 219 219 220 220 220 221 219 217 217 219 219 222 226 226 225 229 227 217 214 215 215 215 217 221 226 228 232 239 244 251 255 256 259 264 270 275 277
336 335 334 337 344 350 350 333 325 331 336 340 343 342 338 328 245 234 235 233 234 236 237 245 248 236 226 234 233 229 228 230 229 226 225 228 228 226 225 225 227 226 225 225 225 223 222 221 221 220 219 219 219 219 220 220 217 216 218 219 221 225 226 224 227 227 220 217 217 217 217 219 223 229 231 233 239 245 249 252 253 256 262 268 273 275
341 335 334 336 337 346 356 342 322 321 325 328 333 335 340 329 210 200 217 231 240 246 247 249 251 245 239 241 240 236 236 237 235 230 228 228 228 226 226 226 227 225 223 224 224 224 222 221 221 221 219 219 219 218 219 219 218 216 217 219 220 223 225 223 225 227 223 219 218 217 218 220 225 230 233 234 239 244 247 249 251 255 261 267 271 273
347 338 339 343 340 342 351 351 342 334 325 322 325 327 328 321 235 211 209 208 219 236 242 247 248 244 244 249 250 244 241 239 233 228 228 228 227 225 224 225 225 223 222 222 223 223 222 220 220 220 219 219 219 218 218 219 218 216 216 217 219 221 223 222 224 227 224 220 218 218 218 219 224 230 233 234 237 242 246 248 250 253 258 264 269 271
348 341 342 346 345 344 347 351 350 346 331 318 314 320 324 311 274 246 216 184 204 234 237 237 240 238 236 243 249 246 242 238 229 225 225 225 225 224 223 223 223 221 220 221 221 223 222 220 220 220 218 217 218 218 218 219 219 217 215 216 218 220 221 222 224 226 224 222 220 219 218 219 223 228 232 232 234 239 243 246 249 252 257 261 265 269
352 351 349 350 347 339 338 346 347 340 326 312 307 308 312 303 281 257 219 203 223 235 230 234 243 240 233 236 241 239 235 232 226 222 221 220 222 225 224 222 222 221 220 219 219 221 221 219 218 219 218 217 217 218 218 219 220 219 217 217 218 219 220 221 224 225 225 225 224 220 217 219 222 227 231 233 235 238 241 244 247 251 256 259 262 266
1 5 3 2 359 342 335 344 346 334 313 304 314 314 306 302 293 272 240 230 237 229 227 249 253 238 232 236 239 236 233 229 223 220 218 216 219 221 219 218 220 220 220 218 217 218 219 217 216 217 218 217 216 217 218 218 219 221 220 218 217 218 219 221 224 225 225 225 226 224 221 220 222 227 231 235 237 238 239 242 246 250 254 258 260 264
5 8 8 12 15 9 1 1 1 358 347 322 319 308 293 291 284 266 240 236 239 226 230 248 259 251 237 234 238 237 233 228 222 219 217 215 216 215 212 212 216 218 217 215 215 216 217 217 216 216 217 218 217 217 217 218 218 220 221 220 217 217 219 221 224 224 224 225 226 227 226 225 225 228 231 235 239 241 240 243 248 250 252 255 257 261
3 7 11 18 24 26 25 22 19 20 16 7 359 324 288 283 271 251 236 237 242 246 251 255 259 263 241 235 245 247 236 228 223 219 216 213 210 207 205 206 208 211 212 211 210 212 215 218 217 215 216 217 217 217 218 219 218 219 221 221 220 219 220 222 224 224 224 226 227 228 229 228 228 229 231 236 242 244 243 244 248 250 252 253 255 258
358 4 12 20 26 31 34 31 29 30 27 19 9 343 304 283 263 247 236 232 237 248 257 253 243 244 250 253 259 252 232 222 218 217 217 212 206 201 200 203 204 205 206 207 207 210 215 219 216 214 215 217 218 218 218 220 220 220 221 221 222 222 222 223 224 225 225 226 227 229 229 229 230 231 232 238 245 246 245 245 247 249 251 253 254 256
355 0 9 18 24 27 30 32 30 29 28 19 1 345 334 314 292 281 269 255 255 267 274 260 251 256 263 255 246 242 234 225 221 222 219 211 205 200 198 200 204 205 204 205 206 208 213 218 217 214 214 216 219 219 218 220 221 221 221 221 222 224 224 224 225 226 227 227 228 229 230 230 232 233 236 241 245 246 245 245 247 249 250 252 253 256
352 356 3 14 21 21 25 30 26 24 26 19 356 352 359 350 345 348 333 308 293 288 283 264 249 251 264 261 246 240 239 234 227 223 220 214 210 204 197 198 203 205 203 205 207 209 213 217 219 217 215 216 219 220 219 220 221 221 221 221 222 224 225 225 225 225 226 229 229 230 230 232 234 237 239 242 244 244 245 245 246 248 249 251 253 256
349 355 359 7 16 17 21 26 23 21 27 25 10 6 11 8 21 33 14 356 342 308 288 278 259 251 261 270 257 244 241 237 227 222 222 219 211 203 197 197 202 204 203 205 209 213 216 219 221 219 217 217 220 221 221 222 222 222 222 222 223 224 225 226 225 224 226 229 231 231 232 233 236 238 240 242 242 243 244 245 245 247 249 252 254 256
345 351 354 358 9 14 17 22 21 21 29 30 20 10 10 14 26 35 29 12 358 342 327 325 313 286 270 263 254 247 239 229 222 221 222 217 214 211 208 207 206 205 207 210 212 214 217 220 221 218 214 216 220 221 222 222 222 222 222 222 223 224 225 226 226 226 226 228 231 232 233 235 237 238 240 241 241 241 243 244 244 246 249 252 254 257
338 344 349 353 2 9 12 16 18 21 26 29 24 14 13 19 19 17 21 12 354 346 341 336 337 338 324 295 271 259 246 230 223 224 225 226 226 223 219 217 213 208 208 213 214 214 217 220 220 216 212 213 217 220 221 223 223 222 222 222 223 224 225 225 226 227 227 228 230 232 233 234 235 237 238 239 239 240 241 242 243 246 249 252 254 256
335 342 345 349 356 3 8 11 12 17 22 25 26 23 18 25 21 12 20 23 1 350 347 339 335 338 332 321 313 292 262 240 230 230 233 236 236 228 221 219 216 213 213 214 214 215 219 221 218 215 213 213 214 217 220 223 224 223 223 223 223 224 225 225 226 227 228 228 229 230 231 233 234 235 236 237 238 239 239 240 242 245 248 251 253 255
335 338 338 344 351 357 4 9 9 15 20 21 21 24 23 24 15 6 17 24 9 354 350 341 335 339 339 334 332 316 274 244 238 238 236 234 231 227 221 216 215 217 218 218 218 221 224 223 218 214 214 213 213 215 218 221 223 224 223 223 223 224 225 225 226 227 228 228 229 230 230 232 233 234 235 236 237 237 238 239 241 244 247 250 252 254
330 332 333 340 347 351 359 5 6 12 21 21 19 20 20 11 358 357 9 9 359 352 350 339 330 330 334 337 343 326 293 273 260 247 235 229 224 220 219 218 215 215 217 220 224 225 224 223 220 216 214 213 213 214 216 219 222 223 223 223 224 224 225 225 226 227 227 227 228 230 230 231 232 233 234 235 235 235 237 239 242 244 247 249 251 254
322 331 334 337 346 351 353 358 4 12 21 23 21 18 10 3 7 13 7 352 341 345 342 330 324 324 322 323 330 317 298 283 257 236 230 232 226 217 214 216 216 217 219 220 219 214 212 214 216 215 214 214 214 214 215 218 220 222 224 224 224 224 225 225 225 227 227 227 228 229 230 230 231 232 233 233 234 235 236 239 241 244 247 249 251 254
325 337 336 332 341 349 348 354 5 11 14 17 20 23 19 12 10 10 358 341 338 343 335 321 321 327 324 321 325 316 293 256 225 223 233 236 228 222 216 212 213 214 211 206 203 203 204 207 210 212 214 215 215 216 216 216 217 219 223 225 225 225 224 224 225 226 226 227 227 228 228 229 230 232 232 232 233 235 236 239 242 245 247 248 251 254
323 331 331 328 335 344 350 357 3 3 3 6 11 18 21 16 7 351 339 338 338 336 333 330 331 332 330 330 335 331 279 224 213 217 232 232 225 220 211 204 205 207 202 195 195 198 201 202 203 208 212 211 212 216 217 215 215 215 218 222 223 223 223 223 224 224 225 225 226 227 227 228 229 230 230 231 232 234 236 239 243 245 246 248 251 254
316 323 328 332 338 344 348 351 352 355 1 3 2 10 19 19 14 3 347 348 344 336 335 338 336 332 330 334 344 356 183 194 201 209 220 229 232 209 192 189 195 201 202 198 194 194 202 208 208 208 210 209 209 212 215 216 215 214 213 216 219 219 220 222 222 223 223 224 224 226 226 227 228 228 228 229 231 233 236 239 242 244 246 249 252 255
313 319 326 331 335 338 336 335 341 351 358 357 355 2 15 20 21 20 16 10 4 352 347 351 352 340 326 329 355 24 130 180 170 177 195 222 246 233 207 199 197 197 204 210 206 187 180 199 210 210 209 210 210 212 215 215 214 214 213 212 214 215 216 218 219 220 221 222 223 225 226 226 226 225 226 228 230 233 236 238 241 244 247 251 254 255
310 312 317 321 323 325 326 326 331 339 343 344 346 350 3 17 22 21 20 18 12 359 352 10 20 12 343 323 340 22 40 12 50 184 221 238 241 224 207 215 217 210 212 228 240 149 145 174 200 206 206 209 209 210 217 217 215 214 212 210 212 213 213 214 215 215 216 218 220 222 224 224 224 224 225 228 231 233 236 238 242 246 249 252 254 255
303 304 307 311 311 312 319 324 327 330 336 341 339 336 347 12 24 20 15 14 13 6 349 343 7 31 39 12 312 324 7 345 347 336 210 213 217 214 211 214 220 220 216 224 197 135 150 166 183 189 197 203 197 192 208 216 213 212 212 209 209 210 210 211 213 212 212 214 217 219 221 222 222 224 226 230 232 234 237 240 244 248 250 252 253 254
291 294 297 299 301 305 314 321 320 318 321 329 330 326 331 352 14 18 12 7 5 2 360 347 347 26 52 65 96 272 28 36 26 1 216 208 212 234 236 225 213 210 211 205 162 157 163 167 167 168 181 194 192 191 201 207 202 204 211 211 209 208 207 209 212 211 211 212 213 215 217 218 221 225 228 231 233 234 238 242 245 248 249 251 253 253
290 293 295 297 298 302 307 306 298 290 288 295 308 316 321 331 352 8 8 3 0 358 2 8 359 13 42 60 83 120 86 77 71 67 163 217 225 235 226 221 220 222 229 223 194 182 182 181 179 177 180 187 192 197 200 198 193 196 202 204 205 205 204 205 207 207 207 208 210 213 216 218 222 226 229 231 234 237 240 243 246 248 249 251 253 254
289 291 293 295 294 294 295 296 294 291 288 292 303 313 319 319 329 350 357 355 355 355 358 7 12 12 26 44 60 84 123 108 87 82 153 201 187 193 199 210 225 233 241 235 214 201 198 192 191 195 195 193 195 196 195 194 193 194 195 194 194 194 195 197 200 201 201 204 207 210 214 218 222 225 228 232 235 239 242 244 246 248 251 252 254 255
Height
5683 5681 5678 5676 5675 5675 5675 5674 5673 5674 5674 5674 5675 5677 5681 5682 5686 5690 5693 5697 5698 5696 5696 5699 5702 5707 5712 5715 5721 5729 5734 5737 5743 5748 5750 5754 5756 5759 5767 5771 5774 5775 5775 5782 5788 5790 5794 5796 5798 5802 5803 5803 5806 5809 5813 5815 5817 5820 5820 5821 5825 5828 5830 5833 5834 5835 5836 5838 5839 5839 5841 5842 5843 5844 5845 5846 5846 5846 5847 5848 5848 5848 5848 5848 5847 5846
5680 5679 5677 5675 5673 5673 5672 5670 5670 5669 5668 5668 5669 5670 5671 5673 5678 5684 5686 5689 5690 5690 5690 5691 5693 5698 5703 5708 5714 5719 5725 5730 5735 5741 5745 5749 5750 5754 5761 5765 5768 5771 5772 5775 5779 5784 5788 5790 5793 5797 5799 5799 5800 5805 5809 5812 5815 5816 5818 5819 5822 5825 5827 5830 5832 5833 5834 5835 5836 5837 5838 5839 5841 5842 5843 5844 5844 5845 5845 5846 5846 5847 5847 5846 5846 5845
5677 5676 5673 5672 5671 5669 5668 5667 5666 5665 5664 5663 5665 5665 5666 5669 5672 5674 5675 5679 5681 5681 5682 5683 5686 5691 5694 5701 5706 5709 5716 5722 5727 5734 5740 5745 5746 5749 5755 5760 5764 5766 5767 5770 5773 5778 5782 5785 5789 5793 5795 5795 5797 5801 5805 5809 5811 5812 5814 5816 5819 5822 5824 5827 5829 5830 5831 5832 5833 5834 5836 5837 5838 5840 5841 5841 5842 5843 5843 5844 5844 5845 5845 5845 5844 5844
5675 5673 5670 5668 5668 5666 5664 5664 5662 5661 5660 5659 5660 5661 5662 5666 5668 5668 5670 5673 5674 5673 5675 5677 5679 5681 5685 5692 5699 5701 5707 5715 5721 5727 5733 5738 5742 5744 5749 5755 5758 5759 5763 5767 5769 5773 5779 5781 5785 5789 5791 5791 5792 5797 5801 5804 5806 5808 5811 5814 5816 5819 5821 5824 5826 5827 5828 5829 5830 5832 5833 5835 5836 5837 5838 5839 5840 5841 5841 5842 5842 5843 5843 5843 5843 5842
5673 5671 5668 5665 5665 5663 5662 5660 5659 5658 5657 5656 5656 5656 5658 5661 5664 5666 5668 5671 5672 5670 5671 5672 5671 5673 5679 5686 5692 5696 5701 5707 5715 5720 5724 5731 5738 5739 5743 5749 5752 5753 5758 5764 5765 5769 5775 5777 5780 5785 5788 5788 5789 5793 5798 5800 5804 5806 5809 5811 5813 5815 5817 5820 5823 5824 5824 5825 5827 5829 5830 5832 5834 5835 5836 5837 5838 5839 5839 5840 5840 5841 5841 5841 5841 5841
5669 5668 5665 5663 5662 5660 5659 5658 5657 5655 5653 5652 5652 5652 5653 5656 5659 5661 5664 5666 5668 5666 5665 5666 5664 5666 5673 5680 5685 5690 5695 5699 5707 5713 5716 5724 5732 5733 5737 5743 5747 5748 5752 5759 5761 5765 5769 5771 5775 5781 5784 5786 5786 5789 5794 5797 5801 5804 5805 5808 5810 5811 5814 5817 5819 5820 5821 5822 5824 5826 5828 5830 5831 5833 5834 5834 5835 5836 5837 5837 5838 5838 5838 5839 5839 5839
5666 5664 5663 5661 5660 5658 5656 5655 5654 5652 5650 5648 5649 5651 5651 5651 5653 5655 5658 5660 5661 5660 5660 5661 5660 5662 5668 5674 5679 5684 5688 5692 5698 5702 5706 5715 5722 5725 5729 5736 5740 5742 5747 5754 5756 5759 5763 5766 5771 5777 5780 5782 5782 5785 5790 5794 5797 5800 5802 5804 5806 5807 5810 5813 5815 5817 5818 5819 5821 5823 5825 5827 5829 5830 5831 5832 5833 5834 5835 5835 5835 5836 5836 5836 5837 5836
5663 5661 5660 5658 5657 5655 5653 5652 5651 5649 5648 5646 5646 5648 5647 5647 5647 5648 5650 5652 5653 5654 5655 5657 5660 5661 5663 5668 5674 5679 5682 5685 5689 5693 5700 5709 5716 5721 5726 5733 5737 5739 5744 5749 5751 5755 5758 5761 5767 5772 5776 5780 5779 5780 5785 5790 5793 5796 5798 5800 5801 5804 5806 5809 5811 5813 5814 5816 5818 5821 5823 5825 5826 5828 5828 5829 5831 5832 5832 5833 5833 5833 5834 5834 5834 5834
5660 5659 5657 5655 5654 5652 5651 5650 5648 5646 5645 5644 5643 5641 5640 5641 5642 5642 5644 5645 5648 5649 5649 5653 5657 5657 5658 5664 5670 5674 5676 5680 5682 5687 5696 5704 5711 5717 5723 5729 5732 5735 5738 5741 5746 5750 5753 5757 5762 5767 5771 5775 5777 5778 5781 5785 5789 5792 5794 5795 5797 5799 5802 5805 5807 5809 5811 5812 5814 5817 5820 5822 5823 5825 5826 5827 5828 5829 5830 5830 5830 5831 5831 5831 5832 5832
5658 5656 5654 5653 5651 5649 5648 5646 5645 5643 5642 5641 5639 5637 5636 5636 5636 5637 5638 5640 5643 5643 5642 5648 5654 5654 5655 5659 5664 5667 5671 5675 5678 5683 5690 5696 5703 5709 5715 5720 5725 5728 5730 5734 5740 5743 5748 5753 5756 5760 5765 5769 5773 5775 5776 5780 5784 5786 5788 5790 5792 5794 5797 5801 5803 5805 5808 5809 5811 5814 5816 5819 5820 5822 5823 5824 5826 5826 5827 5827 5828 5828 5829 5829 5829 5830
5656 5654 5652 5650 5649 5647 5645 5643 5642 5640 5638 5637 5635 5634 5634 5632 5632 5632 5633 5635 5637 5635 5636 5643 5649 5651 5652 5655 5658 5660 5666 5671 5674 5679 5684 5688 5694 5701 5707 5713 5718 5722 5724 5728 5734 5736 5742 5748 5748 5753 5760 5764 5767 5770 5770 5774 5778 5780 5783 5785 5788 5790 5793 5797 5800 5802 5804 5807 5809 5811 5813 5815 5817 5819 5820 5822 5823 5824 5824 5825 5825 5826 5826 5827 5827 5827
5654 5652 5649 5647 5646 5645 5643 5641 5639 5636 5634 5633 5632 5632 5630 5628 5628 5628 5629 5631 5629 5628 5633 5639 5644 5646 5646 5651 5656 5658 5663 5668 5670 5674 5678 5682 5687 5693 5701 5706 5712 5717 5719 5723 5728 5731 5737 5741 5742 5748 5756 5760 5762 5764 5767 5769 5773 5776 5777 5780 5784 5786 5789 5792 5795 5797 5800 5803 5805 5807 5809 5812 5814 5816 5817 5819 5820 5821 5821 5822 5823 5823 5824 5825 5825 5824
5652 5649 5646 5645 5643 5641 5639 5637 5635 5632 5630 5629 5629 5628 5626 5625 5625 5624 5625 5626 5624 5625 5631 5637 5641 5640 5639 5645 5651 5655 5660 5665 5667 5669 5671 5676 5681 5686 5693 5700 5705 5710 5713 5717 5721 5726 5731 5734 5737 5744 5750 5754 5756 5761 5765 5764 5767 5772 5773 5776 5780 5782 5785 5787 5789 5792 5796 5799 5801 5803 5805 5808 5811 5813 5814 5816 5817 5818 5819 5819 5820 5820 5821 5822 5822 5822
5650 5648 5645 5643 5640 5637 5635 5633 5631 5629 5627 5626 5626 5625 5623 5623 5622 5621 5622 5622 5622 5624 5629 5634 5637 5636 5636 5641 5646 5649 5655 5660 5664 5665 5667 5671 5677 5681 5687 5694 5699 5703 5708 5712 5715 5720 5725 5728 5733 5740 5744 5748 5751 5759 5763 5760 5762 5767 5769 5772 5776 5778 5781 5783 5785 5789 5792 5795 5798 5799 5801 5804 5808 5810 5811 5813 5814 5815 5816 5816 5817 5817 5818 5819 5819 5819
5648 5645 5642 5640 5637 5634 5632 5629 5628 5627 5625 5623 5623 5621 5620 5620 5620 5619 5620 5620 5621 5623 5626 5629 5631 5631 5634 5640 5644 5646 5650 5653 5657 5660 5661 5663 5668 5673 5679 5686 5692 5697 5703 5707 5709 5714 5721 5723 5727 5734 5739 5742 5746 5754 5758 5756 5758 5763 5765 5769 5772 5775 5778 5779 5781 5785 5789 5792 5794 5795 5798 5801 5804 5806 5808 5810 5811 5812 5813 5814 5814 5814 5815 5816 5816 5817
5646 5644 5640 5638 5636 5633 5630 5627 5625 5624 5621 5619 5619 5618 5617 5618 5618 5616 5616 5617 5618 5619 5620 5623 5625 5627 5631 5637 5641 5643 5645 5647 5649 5652 5652 5654 5661 5666 5671 5677 5684 5689 5696 5701 5703 5707 5715 5719 5721 5728 5735 5737 5741 5748 5752 5752 5755 5759 5762 5766 5769 5771 5773 5775 5778 5781 5785 5788 5790 5792 5794 5798 5801 5803 5805 5807 5808 5809 5810 5811 5811 5811 5811 5812 5814 5814
5645 5643 5639 5636 5634 5630 5627 5625 5622 5620 5619 5616 5615 5613 5613 5615 5615 5614 5613 5614 5615 5614 5616 5619 5621 5625 5629 5632 5635 5638 5640 5641 5643 5647 5648 5651 5659 5664 5667 5673 5680 5684 5688 5692 5693 5698 5708 5713 5713 5721 5730 5732 5736 5743 5746 5748 5751 5756 5759 5763 5766 5768 5769 5771 5774 5777 5780 5784 5787 5788 5790 5794 5797 5800 5803 5804 5805 5806 5807 5808 5808 5808 5808 5809 5810 5811
5642 5642 5638 5634 5632 5628 5624 5622 5620 5617 5616 5614 5612 5611 5610 5611 5611 5611 5611 5612 5613 5613 5615 5617 5619 5621 5624 5626 5630 5634 5636 5636 5638 5643 5645 5648 5655 5659 5663 5668 5674 5679 5683 5686 5688 5694 5704 5707 5707 5716 5725 5728 5733 5738 5741 5744 5748 5752 5756 5760 5762 5763 5764 5767 5771 5774 5775 5779 5782 5784 5786 5790 5794 5797 5799 5801 5802 5803 5804 5805 5805 5805 5805 5806 5807 5808
5639 5638 5637 5632 5629 5626 5622 5620 5618 5615 5614 5612 5610 5609 5607 5608 5609 5609 5609 5610 5611 5612 5613 5614 5616 5618 5620 5623 5628 5631 5633 5634 5635 5638 5642 5647 5651 5656 5660 5663 5668 5673 5677 5680 5685 5692 5700 5702 5704 5713 5721 5724 5729 5732 5735 5740 5744 5748 5752 5756 5757 5759 5761 5764 5768 5771 5772 5775 5777 5780 5783 5787 5791 5794 5795 5797 5799 5800 5801 5802 5802 5802 5802 5803 5804 5805
5637 5634 5633 5630 5626 5623 5620 5618 5615 5613 5611 5609 5608 5607 5605 5605 5605 5606 5606 5608 5609 5610 5611 5612 5613 5615 5618 5621 5625 5627 5631 5634 5635 5637 5640 5645 5648 5652 5656 5659 5663 5668 5671 5676 5681 5688 5693 5694 5699 5708 5715 5718 5723 5726 5730 5735 5739 5743 5748 5751 5753 5755 5758 5760 5764 5767 5770 5772 5775 5777 5781 5785 5788 5790 5792 5793 5796 5797 5798 5799 5799 5799 5799 5800 5801 5802
5636 5633 5630 5628 5624 5620 5618 5616 5614 5612 5609 5607 5606 5605 5603 5603 5603 5603 5604 5605 5606 5608 5609 5609 5609 5612 5616 5620 5622 5625 5628 5631 5633 5635 5637 5640 5644 5647 5651 5654 5657 5661 5665 5670 5675 5680 5685 5688 5695 5703 5708 5712 5716 5720 5725 5730 5734 5739 5743 5746 5749 5751 5754 5756 5759 5764 5767 5769 5772 5774 5778 5782 5785 5787 5788 5790 5792 5794 5795 5796 5796 5796 5796 5797 5798 5799
5634 5631 5628 5625 5621 5618 5616 5615 5613 5611 5608 5606 5605 5603 5601 5601 5602 5601 5602 5604 5605 5606 5607 5608 5607 5609 5613 5617 5620 5623 5625 5627 5629 5630 5631 5634 5638 5641 5646 5650 5652 5655 5659 5663 5668 5674 5678 5684 5691 5697 5702 5707 5711 5715 5720 5725 5730 5734 5738 5742 5744 5746 5750 5753 5755 5760 5763 5766 5769 5771 5775 5779 5781 5783 5785 5787 5789 5791 5792 5793 5794 5794 5793 5794 5795 5796
5633 5630 5627 5624 5620 5616 5614 5613 5612 5610 5608 5605 5604 5602 5600 5600 5600 5600 5601 5602 5603 5604 5606 5606 5605 5607 5610 5612 5614 5615 5617 5620 5622 5623 5626 5630 5635 5638 5642 5645 5647 5649 5653 5658 5663 5668 5672 5678 5685 5691 5697 5702 5707 5711 5715 5720 5725 5729 5732 5737 5740 5742 5747 5749 5751 5755 5760 5763 5765 5768 5771 5775 5777 5780 5782 5784 5786 5788 5789 5790 5791 5791 5790 5791 5792 5793
5632 5628 5625 5623 5620 5616 5613 5611 5610 5609 5607 5605 5603 5602 5600 5599 5599 5600 5600 5601 5601 5602 5604 5604 5603 5605 5607 5608 5608 5609 5611 5613 5613 5616 5620 5624 5628 5632 5635 5638 5641 5645 5649 5653 5657 5661 5666 5672 5678 5684 5689 5695 5700 5705 5710 5714 5719 5724 5728 5732 5736 5739 5743 5745 5747 5751 5756 5759 5761 5764 5768 5771 5774 5776 5779 5781 5783 5785 5786 5787 5788 5788 5787 5788 5789 5790
5631 5627 5623 5621 5618 5615 5612 5610 5609 5607 5606 5605 5603 5602 5600 5599 5598 5599 5599 5600 5600 5600 5602 5602 5602 5603 5604 5603 5604 5605 5607 5607 5609 5613 5616 5619 5623 5627 5630 5634 5638 5642 5645 5650 5653 5657 5663 5668 5673 5678 5683 5689 5695 5700 5705 5709 5714 5720 5724 5727 5732 5735 5738 5741 5743 5747 5752 5754 5757 5760 5764 5768 5771 5773 5775 5778 5780 5781 5782 5783 5784 5785 5785 5785 5786 5787
5631 5627 5623 5620 5617 5614 5612 5610 5608 5607 5606 5604 5604 5602 5601 5599 5598 5598 5598 5599 5599 5600 5601 5601 5601 5602 5602 5602 5602 5602 5603 5603 5606 5609 5611 5615 5618 5622 5626 5630 5632 5635 5640 5645 5649 5653 5658 5663 5667 5673 5679 5685 5690 5695 5700 5704 5709 5715 5719 5722 5727 5731 5734 5737 5740 5744 5747 5750 5753 5756 5760 5764 5767 5769 5772 5775 5776 5777 5779 5780 5781 5781 5782 5782 5783 5784
5630 5627 5624 5621 5618 5614 5613 5611 5609 5608 5606 5605 5604 5603 5601 5600 5599 5598 5597 5597 5598 5599 5599 5599 5599 5600 5600 5600 5600 5600 5600 5600 5602 5604 5607 5611 5614 5616 5619 5622 5625 5630 5636 5641 5645 5649 5653 5658 5662 5667 5673 5679 5685 5690 5695 5699 5704 5710 5713 5718 5722 5726 5730 5734 5737 5740 5744 5746 5749 5752 5756 5760 5763 5766 5769 5771 5772 5773 5775 5776 5777 5778 5779 5779 5779 5780
5630 5627 5623 5621 5618 5615 5613 5611 5610 5608 5606 5605 5604 5602 5601 5601 5599 5598 5597 5597 5597 5597 5596 5597 5597 5596 5596 5597 5597 5597 5598 5599 5600 5601 5603 5606 5609 5610 5613 5617 5621 5628 5633 5637 5641 5645 5649 5653 5658 5662 5667 5673 5679 5685 5690 5695 5699 5704 5708 5713 5717 5721 5726 5730 5733 5736 5739 5742 5745 5748 5752 5756 5759 5762 5765 5767 5768 5769 5771 5773 5774 5775 5775 5776 5776 5776
5630 5627 5624 5620 5617 5614 5611 5610 5609 5607 5605 5603 5602 5601 5600 5600 5599 5598 5597 5596 5596 5595 5594 5594 5594 5593 5593 5594 5594 5594 5596 5597 5598 5599 5600 5602 5604 5607 5610 5614 5618 5623 5628 5632 5637 5641 5645 5649 5654 5658 5663 5668 5674 5679 5685 5691 5695 5699 5704 5709 5713 5717 5722 5725 5728 5731 5735 5738 5741 5744 5747 5752 5755 5758 5760 5763 5764 5766 5768 5769 5770 5771 5772 5773 5773 5773
5630 5627 5624 5620 5616 5613 5610 5609 5607 5606 5604 5603 5601 5600 5600 5599 5598 5597 5596 5596 5595 5594 5593 5593 5592 5591 5591 5591 5591 5591 5592 5593 5595 5596 5597 5599 5600 5603 5607 5611 5615 5619 5624 5629 5634 5638 5642 5646 5650 5654 5658 5664 5668 5674 5680 5686 5690 5694 5698 5704 5710 5714 5717 5721 5723 5726 5730 5734 5737 5740 5744 5747 5750 5753 5756 5758 5761 5763 5765 5766 5766 5767 5768 5769 5770 5770
5631 5628 5625 5620 5615 5612 5610 5608 5607 5604 5603 5602 5601 5600 5600 5598 5597 5596 5595 5595 5594 5593 5592 5591 5590 5589 5589 5589 5589 5589 5590 5591 5592 5593 5593 5595 5598 5601 5605 5609 5613 5616 5621 5626 5631 5635 5638 5642 5646 5650 5655 5660 5664 5669 5674 5679 5685 5689 5693 5699 5705 5710 5713 5716 5719 5722 5725 5729 5733 5738 5740 5742 5746 5749 5751 5753 5756 5760 5762 5762 5762 5763 5764 5765 5766 5767
5632 5629 5626 5621 5616 5613 5611 5610 5608 5605 5603 5602 5601 5600 5599 5598 5596 5595 5594 5593 5593 5592 5591 5590 5589 5588 5588 5588 5588 5587 5588 5588 5589 5590 5591 5593 5597 5600 5604 5607 5610 5613 5617 5622 5626 5630 5634 5638 5642 5646 5650 5655 5660 5665 5669 5675 5680 5684 5688 5693 5700 5704 5707 5711 5714 5717 5720 5725 5730 5733 5735 5738 5742 5744 5747 5749 5752 5756 5758 5758 5758 5758 5760 5761 5763 5764
5633 5630 5627 5623 5619 5616 5613 5611 5608 5605 5603 5602 5601 5599 5598 5596 5595 5594 5592 5591 5591 5590 5589 5588 5587 5587 5587 5587 5586 5586 5587 5587 5587 5588 5589 5591 5593 5596 5600 5604 5608 5611 5615 5619 5623 5626 5631 5634 5638 5642 5646 5651 5656 5660 5666 5671 5675 5680 5685 5689 5694 5698 5701 5706 5710 5712 5716 5721 5725 5728 5730 5734 5737 5740 5742 5746 5748 5751 5753 5753 5753 5754 5756 5758 5759 5760
5634 5631 5628 5625 5622 5619 5616 5612 5609 5606 5604 5603 5600 5598 5596 5595 5593 5592 5591 5590 5589 5588 5588 5587 5586 5585 5585 5585 5584 5585 5586 5586 5585 5586 5587 5589 5590 5593 5596 5600 5605 5608 5612 5616 5619 5623 5627 5630 5634 5638 5643 5647 5652 5656 5661 5665 5670 5676 5681 5685 5689 5692 5696 5702 5705 5707 5712 5716 5719 5722 5726 5730 5733 5735 5739 5742 5744 5746 5748 5749 5749 5750 5752 5754 5755 5757
5634 5631 5629 5626 5623 5620 5617 5612 5609 5607 5605 5603 5600 5598 5596 5594 5592 5591 5590 5589 5588 5588 5587 5586 5585 5584 5584 5583 5583 5583 5583 5584 5584 5585 5586 5587 5589 5591 5593 5596 5601 5605 5609 5613 5617 5619 5622 5626 5630 5635 5639 5643 5647 5651 5656 5661 5666 5671 5675 5680 5684 5688 5692 5697 5699 5702 5707 5710 5713 5717 5721 5725 5728 5731 5734 5737 5739 5742 5744 5744 5744 5746 5748 5750 5752 5753
5634 5631 5629 5627 5624 5621 5617 5613 5610 5608 5606 5603 5600 5598 5597 5595 5593 5592 5590 5589 5588 5588 5587 5586 5584 5583 5583 5582 5581 5581 5581 5582 5583 5585 5586 5587 5588 5590 5591 5593 5597 5601 5604 5609 5613 5616 5618 5621 5625 5630 5634 5638 5643 5647 5652 5657 5661 5666 5670 5675 5680 5683 5688 5691 5694 5697 5701 5705 5708 5712 5716 5720 5723 5726 5730 5732 5735 5738 5739 5739 5740 5743 5745 5746 5748 5750
5634 5631 5629 5627 5625 5621 5617 5614 5612 5610 5606 5603 5601 5599 5597 5596 5595 5593 5592 5590 5589 5588 5587 5585 5584 5584 5583 5582 5581 5580 5580 5581 5582 5584 5585 5587 5588 5590 5590 5591 5594 5597 5601 5605 5608 5611 5614 5617 5620 5624 5628 5633 5638 5643 5648 5652 5656 5661 5666 5670 5675 5679 5682 5685 5688 5692 5696 5700 5704 5708 5712 5716 5719 5722 5725 5728 5730 5733 5734 5735 5737 5739 5741 5743 5745 5747
5635 5632 5630 5627 5624 5622 5618 5616 5613 5610 5607 5604 5602 5600 5599 5597 5596 5594 5593 5591 5590 5589 5587 5586 5585 5584 5583 5582 5581 5580 5580 5580 5581 5582 5584 5585 5587 5588 5589 5590 5592 5594 5597 5601 5604 5607 5610 5612 5616 5620 5624 5628 5634 5639 5644 5648 5652 5656 5661 5666 5671 5674 5677 5680 5684 5688 5692 5696 5700 5704 5707 5711 5714 5718 5721 5723 5726 5728 5729 5731 5734 5736 5738 5740 5741 5743
5635 5633 5631 5628 5626 5623 5620 5617 5615 5612 5608 5606 5604 5602 5600 5598 5597 5595 5593 5591 5591 5589 5588 5587 5585 5584 5583 5582 5581 5580 5580 5580 5580 5581 5582 5584 5585 5585 5586 5588 5590 5592 5594 5597 5600 5603 5606 5609 5613 5617 5621 5626 5630 5636 5641 5644 5648 5652 5657 5662 5666 5669 5672 5676 5680 5684 5688 5693 5697 5700 5703 5706 5710 5714 5716 5719 5721 5723 5725 5727 5730 5732 5733 5735 5737 5738
5636 5634 5632 5630 5627 5625 5622 5619 5616 5613 5610 5607 5605 5604 5601 5599 5598 5595 5592 5592 5592 5591 5589 5587 5586 5585 5583 5582 5581 5581 5581 5580 5580 5580 5580 5582 5583 5584 5585 5587 5589 5590 5592 5594 5597 5601 5605 5608 5611 5614 5619 5624 5628 5632 5636 5640 5644 5648 5653 5657 5661 5664 5668 5672 5676 5680 5685 5689 5693 5696 5699 5702 5706 5709 5711 5714 5716 5718 5721 5723 5725 5727 5729 5731 5732 5733
5636 5635 5633 5630 5628 5625 5623 5620 5618 5614 5611 5608 5606 5604 5602 5601 5599 5595 5592 5592 5592 5591 5590 5588 5587 5585 5584 5582 5581 5581 5581 5580 5580 5579 5579 5581 5582 5583 5584 5585 5587 5588 5590 5592 5594 5598 5602 5605 5609 5613 5617 5622 5625 5628 5632 5636 5640 5644 5649 5652 5656 5659 5664 5668 5672 5675 5679 5684 5687 5691 5694 5697 5701 5703 5706 5709 5711 5714 5716 5718 5720 5722 5724 5726 5728 5729
5636 5634 5632 5630 5628 5625 5623 5622 5619 5615 5611 5609 5607 5605 5603 5602 5599 5597 5595 5594 5593 5592 5591 5589 5587 5585 5583 5582 5581 5581 5580 5580 5579 5579 5580 5581 5581 5582 5582 5584 5585 5586 5588 5590 5592 5595 5599 5603 5607 5610 5615 5619 5622 5625 5628 5633 5637 5641 5645 5648 5651 5656 5660 5664 5667 5671 5674 5679 5682 5685 5689 5692 5695 5698 5701 5704 5706 5709 5712 5714 5716 5718 5720 5722 5723 5724
5634 5633 5631 5629 5627 5625 5623 5620 5617 5614 5611 5610 5609 5607 5604 5602 5600 5598 5597 5596 5594 5593 5591 5589 5586 5584 5583 5581 5581 5580 5579 5578 5578 5579 5579 5579 5579 5580 5580 5581 5583 5584 5585 5588 5591 5595 5598 5601 5604 5607 5612 5616 5619 5622 5624 5628 5632 5637 5641 5644 5648 5652 5656 5659 5662 5665 5669 5673 5677 5680 5684 5687 5690 5693 5696 5699 5702 5705 5707 5710 5711 5713 5715 5717 5718 5720
5634 5632 5631 5629 5626 5625 5622 5619 5617 5615 5614 5612 5610 5607 5605 5604 5602 5600 5599 5597 5595 5593 5591 5589 5587 5585 5582 5581 5580 5579 5577 5577 5578 5579 5579 5579 5579 5578 5579 5580 5581 5583 5585 5588 5591 5594 5596 5598 5600 5603 5607 5610 5613 5616 5620 5623 5625 5629 5634 5639 5643 5646 5649 5653 5657 5660 5664 5669 5672 5675 5678 5682 5684 5688 5691 5694 5697 5700 5703 5705 5707 5709 5711 5712 5714 5715
5633 5632 5630 5628 5626 5624 5623 5621 5620 5618 5616 5614 5612 5609 5606 5605 5603 5601 5599 5597 5595 5593 5592 5590 5587 5585 5582 5580 5579 5578 5578 5578 5579 5579 5580 5580 5580 5579 5580 5581 5582 5584 5586 5588 5589 5592 5594 5595 5596 5599 5602 5605 5608 5611 5616 5619 5621 5623 5626 5630 5634 5638 5643 5646 5650 5654 5659 5664 5667 5670 5673 5677 5680 5683 5686 5689 5692 5695 5698 5701 5702 5704 5706 5708 5709 5710
5631 5630 5629 5627 5626 5625 5624 5622 5620 5619 5617 5616 5614 5610 5607 5605 5604 5601 5599 5597 5595 5593 5592 5590 5588 5585 5582 5580 5580 5580 5579 5580 5580 5580 5580 5580 5580 5580 5581 5582 5583 5584 5586 5588 5587 5587 5588 5591 5593 5595 5599 5603 5606 5610 5613 5617 5620 5622 5622 5623 5625 5629 5634 5639 5643 5649 5654 5658 5661 5664 5668 5671 5674 5678 5681 5684 5687 5691 5693 5695 5697 5699 5701 5703 5704 5705
5630 5629 5628 5627 5626 5624 5623 5621 5619 5618 5617 5616 5614 5611 5608 5605 5603 5601 5599 5597 5595 5593 5592 5590 5589 5586 5583 5580 5580 5581 5580 5581 5581 5581 5580 5580 5580 5581 5582 5584 5584 5584 5586 5587 5585 5581 5581 5585 5589 5593 5597 5601 5605 5610 5612 5614 5618 5621 5621 5621 5622 5622 5625 5630 5635 5641 5646 5650 5654 5658 5662 5666 5669 5673 5676 5679 5683 5686 5688 5690 5693 5695 5696 5698 5699 5700
5628 5627 5627 5626 5625 5623 5622 5620 5617 5616 5615 5613 5612 5611 5609 5606 5603 5600 5599 5597 5595 5594 5592 5591 5589 5588 5584 5581 5580 5580 5580 5581 5581 5581 5581 5580 5580 5581 5582 5583 5583 5583 5583 5584 5582 5580 5581 5585 5587 5591 5594 5597 5602 5606 5607 5610 5616 5619 5619 5620 5621 5622 5623 5625 5628 5632 5636 5641 5646 5651 5655 5660 5664 5668 5672 5675 5678 5681 5684 5687 5689 5690 5691 5692 5694 5695
5628 5626 5625 5625 5624 5622 5621 5620 5618 5616 5615 5614 5612 5610 5609 5607 5604 5601 5599 5597 5595 5594 5592 5591 5590 5589 5585 5582 5580 5581 5582 5582 5582 5582 5581 5580 5580 5581 5581 5581 5582 5583 5582 5583 5583 5584 5586 5587 5588 5590 5593 5594 5598 5600 5601 5605 5613 5616 5616 5617 5620 5621 5623 5624 5626 5629 5632 5636 5640 5644 5648 5654 5659 5663 5667 5671 5674 5677 5680 5682 5683 5684 5686 5687 5689 5690
5627 5625 5624 5622 5622 5621 5621 5620 5619 5618 5616 5615 5613 5611 5610 5608 5605 5602 5600 5598 5595 5593 5592 5591 5591 5590 5588 5584 5582 5583 5584 5583 5582 5582 5582 5581 5580 5581 5581 5581 5582 5583 5583 5583 5583 5584 5586 5587 5589 5591 5593 5595 5597 5598 5599 5603 5607 5610 5612 5615 5617 5619 5622 5624 5626 5629 5632 5634 5637 5641 5645 5650 5655 5660 5664 5668 5671 5673 5675 5677 5678 5679 5680 5682 5684 5685
5625 5624 5622 5621 5620 5620 5619 5619 5618 5617 5616 5615 5613 5610 5609 5607 5605 5603 5601 5598 5595 5594 5592 5591 5590 5589 5588 5587 5585 5585 5585 5584 5583 5582 5582 5582 5581 5581 5581 5582 5583 5583 5583 5583 5584 5584 5585 5587 5589 5591 5593 5595 5598 5600 5601 5602 5605 5607 5610 5612 5613 5614 5617 5619 5621 5624 5627 5631 5634 5638 5643 5648 5652 5656 5661 5664 5666 5668 5670 5672 5673 5674 5675 5676 5678 5680